[[{"header":{"parameterUnit":"m.s-1","parameterCategory":2,"la1":30.2991,"la2":30.254,"lo1":-89.0895,"lo2":-89.0444,"dy":0.0017,"dx":0.0017,"nx":28,"ny":28,"refTime":"2025-09-08T03:00:00:Z","depth":"0","parameterNumber":2,"parameterNumberName":"U-component_of_CURRENTS"},"data":[0,0,0,0,0,0,0,0,0,0,0,0,0,0,0,0,0,0,0,0,0,0,0,0,0,0,0,0,0,0,0,0,0,0,0,0,0,0,0,0,0,0,0,0,0,0,0,0,0,0,0,0,0,0,0,0,0,0,0.1665,0.1666,0,0.1692,0.1692,0.1692,0.1687,0.1687,0.1687,0.1687,0.1673,0.1673,0.1673,0,0,0,0,0,0,0,0,0,0,0,0,0,0.1604,0.1605,0.1665,0.1666,0.1667,0.1692,0.1692,0.1692,0.1687,0.1687,0.1687,0.1687,0.1673,0.1673,0.1673,0,0,0,0,0,0,0,0,0,0,0,0,0,0.1627,0.1605,0.1665,0.167,0.1671,0.1692,0.1692,0.1692,0.1687,0.1687,0.1687,0.1687,0.1673,0.1673,0.1673,0.1676,0,0,0.1672,0.1672,0,0,0,0,0,0,0,0,0.1626,0.1629,0.1668,0.167,0.1671,0.1689,0.1666,0.1686,0.1687,0.1677,0.1687,0.1686,0.1677,0.1677,0.1678,0.1675,0.1674,0.1672,0.1672,0.1671,0.1671,0,0,0,0,0,0,0,0.1624,0.1628,0.1672,0.1669,0.1671,0.1669,0.1671,0.1669,0.1675,0.1678,0.1679,0.1687,0.1677,0.1678,0.1677,0.1674,0.1672,0.1671,0.1671,0.1671,0.1684,0.1685,0,0,0,0,0,0,0.1629,0.1627,0.1672,0.1674,0.1651,0.167,0.1673,0.1681,0.1676,0.1676,0.1687,0.1687,0.1679,0.1678,0.1677,0.1693,0.1671,0.1671,0.1671,0.1684,0.1685,0.1685,0,0,0,0,0,0,0.1627,0.1632,0.1671,0.1653,0.1658,0.1672,0.168,0.1681,0.1684,0.1684,0.1683,0.169,0.1679,0.1677,0.1681,0.1692,0.1671,0.1671,0.1683,0.1684,0.1685,0.1718,0,0,0,0,0,0,0.1625,0.1632,0.1634,0.1654,0.166,0.1686,0.1681,0.1682,0.1691,0.1691,0.1685,0.1684,0.1678,0.1682,0.1681,0.1691,0.167,0.1683,0.1684,0.1685,0.1716,0.172,0.1723,0,0,0,0,0,0.1623,0.1628,0.1634,0.1639,0.1664,0.1687,0.1689,0.1695,0.1692,0.1696,0.1694,0.1684,0.1687,0.1682,0.1681,0.1692,0.1682,0.1683,0.1684,0.1715,0.1719,0.1723,0,0,0,0,0,0,0.1598,0.1629,0.1635,0.1648,0.1668,0.1687,0.1693,0.1698,0.17,0.1698,0.1691,0.169,0.1699,0.169,0.1684,0.1698,0.1683,0.1684,0.1706,0.171,0.1714,0.1722,0.167,0,0,0,0,0,0.1597,0.161,0.1638,0.1648,0.166,0.1676,0.1684,0.1692,0.1701,0.1702,0.1699,0.1698,0.1703,0.1702,0.1703,0.1709,0.1726,0.1715,0.1719,0.1721,0.1727,0.1755,0.1761,0.1689,0.1689,0.1689,0,0,0.1589,0.1609,0.1615,0.1645,0.1659,0.1679,0.1679,0.1697,0.1712,0.17,0.171,0.171,0.1708,0.1718,0.1721,0.1712,0.1756,0.1723,0.1726,0.173,0.1757,0.1764,0.177,0.169,0.169,0.169,0,0,0.1588,0.1601,0.1615,0.1635,0.1666,0.1679,0.1686,0.1708,0.1714,0.1728,0.1726,0.1735,0.1734,0.1742,0.1744,0.1766,0.1775,0.1763,0.1784,0.1811,0.1817,0.1823,0.188,0.189,0.1762,0.1762,0.1762,0,0.1577,0.1601,0.1621,0.1645,0.1663,0.168,0.1701,0.1713,0.1732,0.1743,0.1733,0.1753,0.1748,0.1773,0.178,0.1774,0.18,0.177,0.1816,0.1822,0.1827,0.1884,0.1895,0.1764,0.1764,0.1764,0.1764,0,0.1592,0.1611,0.1622,0.1658,0.1679,0.1699,0.1727,0.1742,0.1749,0.1763,0.1788,0.1788,0.1802,0.1802,0.1796,0.1833,0.1845,0.182,0.1808,0.1837,0.1894,0.1905,0.1767,0.1766,0.1765,0.1765,0,0,0.1572,0.1622,0.1626,0.1643,0.1689,0.1705,0.1737,0.1771,0.1792,0.1805,0.1836,0.1844,0.1849,0.1852,0.1851,0.187,0.1935,0.1862,0.1863,0.1923,0.2023,0.2055,0.207,0.1918,0.1919,0.192,0.2058,0,0.1578,0.1614,0.1643,0.1675,0.1696,0.1729,0.1756,0.1788,0.1814,0.1846,0.1861,0.1884,0.1867,0.1878,0.1898,0.1925,0.1961,0.1902,0.1983,0.1986,0.2012,0.2082,0.2023,0.2142,0.2069,0.2071,0.2072,0,0.1587,0.161,0.1642,0.1685,0.1698,0.1717,0.1768,0.1796,0.1851,0.1876,0.1911,0.1925,0.1971,0.194,0.2018,0.1983,0.201,0.2027,0.2032,0.2055,0.2037,0.2096,0.2165,0.2095,0.2089,0.2088,0.2086,0,0.1564,0.161,0.163,0.1647,0.1699,0.1717,0.1743,0.1799,0.1826,0.1899,0.1929,0.1984,0.2017,0.2053,0.2103,0.2063,0.2195,0.2141,0.2202,0.2206,0.2169,0.2167,0.2181,0.2198,0.2198,0.2197,0.2197,0,0.1565,0.158,0.1616,0.1629,0.1652,0.1696,0.173,0.1774,0.1834,0.1884,0.1936,0.1993,0.2043,0.2119,0.2145,0.2237,0.2238,0.2236,0.2247,0.2182,0.218,0.2126,0.2083,0.2202,0.2201,0.22,0.2199,0,0.1546,0.157,0.159,0.1631,0.1643,0.1657,0.1709,0.1736,0.1805,0.1878,0.1903,0.2014,0.2133,0.22,0.2292,0.2303,0.2317,0.24,0.2343,0.2346,0.2309,0.227,0.2232,0.2162,0.2485,0.2487,0.2488,0,0.1543,0.1551,0.1579,0.1584,0.1602,0.1628,0.1651,0.1715,0.1757,0.1898,0.1936,0.2074,0.2178,0.2351,0.2418,0.2514,0.2395,0.2496,0.2394,0.233,0.2295,0.2171,0.2103,0.2372,0.2372,0.2372,0.2372,0,0.1533,0.1536,0.1549,0.1559,0.1574,0.1596,0.1637,0.1661,0.1763,0.1836,0.1961,0.2053,0.2255,0.2348,0.2494,0.2529,0.2373,0.2504,0.2437,0.2221,0.2087,0.2017,0.2279,0.2375,0.2374,0.2374,0.2374,0.2374,0.1515,0.1515,0.1524,0.1532,0.1544,0.1563,0.1572,0.1634,0.1697,0.181,0.1935,0.2063,0.2238,0.2438,0.2468,0.2475,0.2413,0.2395,0.2365,0.2254,0.214,0.2435,0.2535,0.2536,0.2536,0.2537,0.2537,0,0.1495,0.1497,0.1501,0.1503,0.15,0.1524,0.1563,0.1575,0.1639,0.1772,0.1877,0.2055,0.2183,0.2297,0.2394,0.2335,0.2198,0.2269,0.2055,0.2002,0.2278,0.2225,0.2263,0.2263,0.2263,0.2263,0.2263,0.2263,0.1483,0.1478,0.148,0.1462,0.1462,0.1452,0.1464,0.1498,0.1572,0.168,0.1775,0.1891,0.2081,0.2238,0.2236,0.2186,0.1983,0.1933,0.1888,0.2065,0.2072,0.2078,0.2017,0.2011,0.201,0.1521,0.1517,0.1515]},{"header":{"parameterUnit":"m.s-1","parameterCategory":2,"la1":30.2991,"la2":30.254,"lo1":-89.0895,"lo2":-89.0444,"dy":0.0017,"dx":0.0017,"nx":28,"ny":28,"refTime":"2025-09-08T03:00:00:Z","depth":"0","parameterNumber":3,"parameterNumberName":"V-component_of_CURRENTS"},"data":[0,0,0,0,0,0,0,0,0,0,0,0,0,0,0,0,0,0,0,0,0,0,0,0,0,0,0,0,0,0,0,0,0,0,0,0,0,0,0,0,0,0,0,0,0,0,0,0,0,0,0,0,0,0,0,0,0,0,-0.0326,-0.0327,0,-0.0371,-0.0371,-0.0371,-0.0393,-0.0393,-0.0393,-0.0394,-0.041,-0.041,-0.0411,0,0,0,0,0,0,0,0,0,0,0,0,0,-0.0253,-0.0254,-0.0326,-0.0327,-0.0328,-0.0371,-0.0371,-0.0372,-0.0393,-0.0393,-0.0393,-0.0394,-0.041,-0.041,-0.0411,0,0,0,0,0,0,0,0,0,0,0,0,0,-0.0286,-0.0254,-0.0326,-0.0346,-0.0349,-0.0371,-0.0371,-0.0372,-0.0392,-0.0393,-0.0394,-0.0394,-0.041,-0.041,-0.0411,-0.0401,0,0,-0.0411,-0.0411,0,0,0,0,0,0,0,0,-0.0284,-0.0288,-0.0342,-0.0345,-0.0348,-0.038,-0.0352,-0.0382,-0.0392,-0.0372,-0.0394,-0.0394,-0.04,-0.0401,-0.0403,-0.0402,-0.0403,-0.0411,-0.0411,-0.0411,-0.0411,0,0,0,0,0,0,0,-0.0282,-0.0287,-0.0339,-0.0343,-0.0347,-0.0353,-0.0357,-0.0358,-0.0378,-0.0373,-0.0376,-0.0388,-0.0401,-0.0403,-0.0403,-0.0403,-0.0411,-0.0411,-0.0411,-0.0411,-0.0412,-0.0412,0,0,0,0,0,0,-0.0285,-0.0285,-0.0338,-0.0341,-0.0322,-0.0354,-0.0359,-0.0366,-0.0379,-0.0383,-0.0387,-0.0389,-0.0402,-0.0403,-0.0404,-0.0394,-0.0411,-0.0412,-0.0412,-0.0412,-0.0412,-0.0412,0,0,0,0,0,0,-0.0283,-0.0289,-0.0336,-0.0317,-0.0324,-0.0355,-0.0362,-0.0367,-0.0372,-0.0391,-0.0393,-0.0389,-0.0403,-0.0404,-0.0404,-0.0394,-0.0412,-0.0412,-0.0412,-0.0412,-0.0412,-0.0373,0,0,0,0,0,0,-0.028,-0.0288,-0.0284,-0.0317,-0.0326,-0.0343,-0.0363,-0.0367,-0.038,-0.0382,-0.0393,-0.0395,-0.0403,-0.0404,-0.0405,-0.0395,-0.0412,-0.0412,-0.0412,-0.0412,-0.0374,-0.0371,-0.0369,0,0,0,0,0,-0.0277,-0.0269,-0.0283,-0.029,-0.0323,-0.0343,-0.0347,-0.0368,-0.038,-0.0375,-0.0387,-0.0395,-0.0404,-0.0404,-0.0405,-0.0395,-0.0412,-0.0412,-0.0412,-0.0375,-0.0372,-0.0369,0,0,0,0,0,0,-0.0231,-0.0272,-0.0288,-0.0291,-0.0316,-0.0349,-0.0347,-0.0366,-0.0371,-0.0372,-0.0389,-0.0392,-0.0391,-0.0399,-0.0399,-0.0396,-0.0411,-0.0411,-0.0383,-0.0379,-0.0377,-0.0362,-0.0412,0,0,0,0,0,-0.0222,-0.0227,-0.0269,-0.0269,-0.0282,-0.0314,-0.0324,-0.0341,-0.0358,-0.0361,-0.0373,-0.0383,-0.039,-0.039,-0.0397,-0.0389,-0.0398,-0.0386,-0.0383,-0.0381,-0.0371,-0.0384,-0.0382,-0.0411,-0.0411,-0.0411,0,0,-0.0205,-0.0227,-0.0231,-0.026,-0.0279,-0.0287,-0.0319,-0.0332,-0.0332,-0.0361,-0.0355,-0.0374,-0.0388,-0.0383,-0.0383,-0.0387,-0.0376,-0.0381,-0.0378,-0.0369,-0.0384,-0.0381,-0.0378,-0.0411,-0.0411,-0.0411,0,0,-0.0175,-0.0194,-0.0191,-0.021,-0.0242,-0.0261,-0.0265,-0.0299,-0.0306,-0.0311,-0.0333,-0.0344,-0.0353,-0.036,-0.0365,-0.0351,-0.0365,-0.0357,-0.0325,-0.0339,-0.0336,-0.0334,-0.0334,-0.0332,-0.0352,-0.0352,-0.0352,0,-0.0153,-0.0158,-0.0191,-0.0196,-0.0204,-0.0248,-0.0244,-0.0257,-0.0284,-0.0282,-0.0303,-0.0323,-0.034,-0.0332,-0.0332,-0.0343,-0.035,-0.0335,-0.0334,-0.0332,-0.0331,-0.0331,-0.033,-0.035,-0.035,-0.035,-0.035,0,-0.0128,-0.0131,-0.013,-0.0149,-0.0158,-0.0162,-0.0193,-0.0196,-0.0215,-0.0232,-0.0238,-0.0268,-0.0278,-0.0291,-0.0307,-0.0302,-0.031,-0.0332,-0.0339,-0.0325,-0.0327,-0.0326,-0.0347,-0.0348,-0.0348,-0.0349,0,0,-0.0086,-0.0107,-0.0107,-0.0103,-0.0134,-0.0136,-0.0133,-0.014,-0.0126,-0.0164,-0.0149,-0.0183,-0.0209,-0.0217,-0.0245,-0.026,-0.0261,-0.0287,-0.0289,-0.0281,-0.0279,-0.0262,-0.026,-0.0284,-0.0284,-0.0283,-0.0282,0,-0.0057,-0.0045,-0.0065,-0.0046,-0.0042,-0.0071,-0.006,-0.007,-0.0082,-0.0077,-0.012,-0.0123,-0.0178,-0.0182,-0.0207,-0.0242,-0.0257,-0.0258,-0.0299,-0.03,-0.0282,-0.0258,-0.0251,-0.0247,-0.0281,-0.0281,-0.0281,0,-0.0031,-0.0024,-0.0002,0.001,0.0011,0.0017,0.0036,0.0041,0.0031,0.0021,-0.0001,-0.0037,-0.0061,-0.0116,-0.0171,-0.0169,-0.0219,-0.0256,-0.0257,-0.0252,-0.0281,-0.0269,-0.0244,-0.036,-0.028,-0.028,-0.028,0,0.0012,0.0022,0.0047,0.0046,0.0049,0.0064,0.0071,0.0071,0.0096,0.0084,0.0099,0.0048,0.0041,-0.0038,-0.0117,-0.0145,-0.0172,-0.0222,-0.0254,-0.0253,-0.0259,-0.0259,-0.0345,-0.0264,-0.0264,-0.0264,-0.0264,0,0.0043,0.0064,0.0071,0.0081,0.0128,0.0112,0.016,0.0161,0.0178,0.0233,0.0152,0.0185,0.0059,0.0024,-0.0075,-0.0142,-0.014,-0.0235,-0.0249,-0.0245,-0.0243,-0.0354,-0.0423,-0.0264,-0.0264,-0.0264,-0.0264,0,0.0075,0.0076,0.011,0.0129,0.0144,0.0176,0.0221,0.0262,0.0263,0.0334,0.0336,0.03,0.0261,0.0143,0.004,-0.0063,-0.0204,-0.0176,-0.0153,-0.0164,-0.0317,-0.0383,-0.0458,-0.0506,-0.0218,-0.0218,-0.0217,0,0.0091,0.0108,0.015,0.0184,0.0193,0.024,0.0282,0.0301,0.036,0.0422,0.0473,0.0448,0.0466,0.0316,0.0128,-0.0027,-0.0157,-0.014,-0.0203,-0.0309,-0.0394,-0.0441,-0.048,-0.0197,-0.0196,-0.0196,-0.0195,0,0.0126,0.0137,0.0167,0.0237,0.0287,0.0355,0.0423,0.0486,0.0541,0.0611,0.0711,0.0729,0.0587,0.0445,0.0215,0.008,-0.0217,-0.0136,-0.026,-0.0387,-0.0429,-0.0486,-0.0209,-0.0191,-0.0192,-0.0192,-0.0192,-0.0192,0.0155,0.0188,0.0233,0.0303,0.0369,0.0476,0.0552,0.0648,0.0771,0.0908,0.0908,0.0968,0.0716,0.0406,0.0208,-0.0169,-0.0177,-0.0294,-0.0364,-0.04,-0.0452,-0.0151,-0.0142,-0.0143,-0.0143,-0.0143,-0.0143,0,0.02,0.024,0.0303,0.0397,0.0487,0.0513,0.0656,0.0749,0.092,0.1047,0.1142,0.106,0.0753,0.0398,-0.0096,-0.035,-0.047,-0.0501,-0.0591,-0.0621,-0.0365,-0.0372,-0.0394,-0.0394,-0.0394,-0.0394,-0.0394,-0.0394,0.0228,0.0295,0.0331,0.0486,0.0559,0.0698,0.0791,0.0938,0.1052,0.1212,0.126,0.1267,0.0985,0.0139,-0.045,-0.0597,-0.0791,-0.0818,-0.0909,-0.077,-0.0758,-0.0745,-0.0769,-0.0874,-0.0874,-0.1136,-0.1139,-0.1141]}],[{"header":{"parameterUnit":"m.s-1","parameterCategory":2,"la1":30.2991,"la2":30.254,"lo1":-89.0895,"lo2":-89.0444,"dy":0.0017,"dx":0.0017,"nx":28,"ny":28,"refTime":"2025-09-08T03:00:00:Z","depth":"2","parameterNumber":2,"parameterNumberName":"U-component_of_CURRENTS"},"data":[0,0,0,0,0,0,0,0,0,0,0,0,0,0,0,0,0,0,0,0,0,0,0,0,0,0,0,0,0,0,0,0,0,0,0,0,0,0,0,0,0,0,0,0,0,0,0,0,0,0,0,0,0,0,0,0,0,0,0.1565,0.1566,0,0.1596,0.1596,0.1596,0.1603,0.1603,0.1603,0.1603,0.16,0.1599,0.1599,0,0,0,0,0,0,0,0,0,0,0,0,0,0.1506,0.1507,0.1565,0.1566,0.1566,0.1596,0.1596,0.1596,0.1603,0.1603,0.1603,0.1603,0.16,0.1599,0.1599,0,0,0,0,0,0,0,0,0,0,0,0,0,0.1531,0.1507,0.1565,0.1576,0.1577,0.1596,0.1596,0.1596,0.1603,0.1603,0.1603,0.1603,0.16,0.1599,0.1599,0.1595,0,0,0.1598,0.1598,0,0,0,0,0,0,0,0,0.1529,0.1532,0.1574,0.1575,0.1577,0.1599,0.1574,0.1595,0.1603,0.1589,0.1603,0.1603,0.1598,0.1598,0.1599,0.1595,0.1594,0.1598,0.1598,0.1598,0.1598,0,0,0,0,0,0,0,0.1527,0.1531,0.1574,0.1574,0.1576,0.1577,0.1581,0.1578,0.1589,0.1591,0.1592,0.1601,0.1598,0.1599,0.1599,0.1594,0.1598,0.1598,0.1598,0.1598,0.1622,0.1623,0,0,0,0,0,0,0.1531,0.1529,0.1573,0.1575,0.1557,0.1579,0.1582,0.1589,0.159,0.1592,0.1601,0.1601,0.16,0.1599,0.1599,0.1625,0.1598,0.1598,0.1598,0.1621,0.1622,0.1623,0,0,0,0,0,0,0.1529,0.1534,0.1572,0.1556,0.1561,0.158,0.1587,0.1589,0.1595,0.1599,0.1599,0.1605,0.16,0.1599,0.161,0.1623,0.1598,0.1597,0.162,0.1622,0.1623,0.1656,0,0,0,0,0,0,0.1527,0.1533,0.154,0.1556,0.1562,0.1586,0.1587,0.159,0.1602,0.1603,0.1603,0.1602,0.16,0.1611,0.161,0.1622,0.1597,0.1619,0.1621,0.1622,0.1654,0.1658,0.1662,0,0,0,0,0,0.1525,0.1532,0.154,0.1546,0.157,0.1586,0.1589,0.1601,0.1602,0.1605,0.1613,0.1603,0.162,0.1611,0.161,0.1623,0.1619,0.1621,0.1622,0.1652,0.1657,0.1662,0,0,0,0,0,0,0.1504,0.1534,0.1543,0.1557,0.1574,0.1589,0.1596,0.1603,0.1611,0.1614,0.1611,0.1612,0.1627,0.162,0.1611,0.1635,0.1618,0.162,0.1641,0.1646,0.165,0.1656,0.1597,0,0,0,0,0,0.1505,0.1523,0.1545,0.1557,0.1566,0.1581,0.159,0.16,0.1611,0.1615,0.1618,0.1623,0.1633,0.1636,0.1641,0.165,0.1659,0.1658,0.1662,0.1666,0.1671,0.1696,0.1703,0.1629,0.1629,0.1629,0,0,0.1501,0.1521,0.153,0.1555,0.1568,0.1586,0.1585,0.1603,0.1621,0.1613,0.1633,0.1637,0.1639,0.1656,0.1662,0.1652,0.1695,0.1668,0.1671,0.1674,0.1699,0.1706,0.1712,0.163,0.163,0.163,0,0,0.1503,0.1518,0.1534,0.155,0.1578,0.1592,0.1598,0.1618,0.1629,0.1649,0.1653,0.1667,0.1673,0.1685,0.1689,0.1716,0.1716,0.1716,0.1739,0.1763,0.177,0.1775,0.1809,0.1818,0.1716,0.1716,0.1716,0,0.1499,0.1521,0.1539,0.1558,0.1577,0.1595,0.1615,0.1629,0.1652,0.1664,0.166,0.169,0.1689,0.1718,0.1731,0.1726,0.1743,0.172,0.1769,0.1775,0.178,0.1813,0.1822,0.1718,0.1718,0.1717,0.1717,0,0.1509,0.1532,0.1541,0.1577,0.1598,0.1617,0.1645,0.1665,0.168,0.1694,0.1724,0.173,0.175,0.1751,0.1749,0.1787,0.1789,0.1772,0.1757,0.1789,0.1822,0.1831,0.172,0.172,0.1719,0.1719,0,0,0.1493,0.1539,0.1544,0.1564,0.1611,0.1627,0.1665,0.17,0.1724,0.1743,0.1777,0.1793,0.1798,0.1804,0.1806,0.1824,0.1878,0.1816,0.1816,0.185,0.1945,0.1913,0.1919,0.187,0.1871,0.1872,0.1958,0,0.1498,0.153,0.156,0.1598,0.1619,0.1656,0.1689,0.1726,0.1753,0.1788,0.1806,0.1833,0.1818,0.1833,0.1852,0.1874,0.19,0.1857,0.1908,0.191,0.1877,0.1927,0.1769,0.1829,0.1967,0.1968,0.1969,0,0.1503,0.1526,0.1559,0.1613,0.1626,0.1652,0.1712,0.1745,0.18,0.1824,0.1859,0.1874,0.1919,0.1894,0.1954,0.1928,0.1943,0.1953,0.1956,0.1919,0.1893,0.1816,0.1839,0.1983,0.1982,0.1981,0.198,0,0.1484,0.1531,0.1556,0.1572,0.1632,0.1657,0.1692,0.1751,0.1782,0.1851,0.1881,0.1931,0.1965,0.199,0.2019,0.1992,0.2083,0.2046,0.2033,0.2031,0.1902,0.1887,0.2087,0.2087,0.2087,0.2087,0.2086,0,0.1486,0.1507,0.1544,0.1557,0.159,0.1642,0.1684,0.1732,0.1797,0.1842,0.1893,0.194,0.199,0.2043,0.2053,0.2084,0.2116,0.2054,0.2054,0.1911,0.1896,0.2025,0.2017,0.209,0.2089,0.2089,0.2088,0,0.1478,0.1497,0.1523,0.1569,0.1583,0.1609,0.1673,0.1704,0.1773,0.184,0.1867,0.1964,0.2038,0.2083,0.2146,0.2128,0.2157,0.2156,0.1994,0.1973,0.208,0.2072,0.2148,0.2148,0.2147,0.2147,0.2147,0,0.1483,0.1493,0.152,0.1526,0.1548,0.1586,0.1614,0.1686,0.1726,0.185,0.1884,0.1984,0.2036,0.2126,0.2122,0.2148,0.218,0.2019,0.1927,0.2095,0.2088,0.2081,0.2074,0.1779,0.1775,0.1773,0.1771,0,0.1492,0.1492,0.1505,0.1513,0.1531,0.1556,0.1605,0.1629,0.1727,0.1774,0.1861,0.1911,0.2004,0.1967,0.2014,0.2001,0.1999,0.1966,0.2193,0.1785,0.1753,0.1744,0.1748,0.1747,0.175,0.1751,0.1753,0.1754,0.149,0.1492,0.1495,0.1504,0.1513,0.1528,0.1541,0.1586,0.1629,0.1689,0.1779,0.1796,0.1837,0.1814,0.1784,0.1766,0.1883,0.1805,0.181,0.1819,0.1758,0.1726,0.1706,0.1708,0.171,0.1711,0.1713,0,0.1486,0.1485,0.149,0.1485,0.1482,0.1502,0.1535,0.1529,0.1548,0.1589,0.1622,0.1507,0.1502,0.1549,0.1477,0.1487,0.1442,0.1441,0.1366,0.1392,0.1414,0.1328,0.1165,0.1163,0.1161,0.1159,0,0,0.1481,0.1478,0.1477,0.1458,0.1455,0.1443,0.1453,0.1428,0.1435,0.1367,0.1342,0.1437,0.1504,0.1307,0.1294,0.122,0.1289,0.1176,0.162,0.1558,0.1577,0.1637,0.1537,0,0,0,0,0]},{"header":{"parameterUnit":"m.s-1","parameterCategory":2,"la1":30.2991,"la2":30.254,"lo1":-89.0895,"lo2":-89.0444,"dy":0.0017,"dx":0.0017,"nx":28,"ny":28,"refTime":"2025-09-08T03:00:00:Z","depth":"2","parameterNumber":3,"parameterNumberName":"V-component_of_CURRENTS"},"data":[0,0,0,0,0,0,0,0,0,0,0,0,0,0,0,0,0,0,0,0,0,0,0,0,0,0,0,0,0,0,0,0,0,0,0,0,0,0,0,0,0,0,0,0,0,0,0,0,0,0,0,0,0,0,0,0,0,0,-0.0102,-0.0103,0,-0.0152,-0.0153,-0.0153,-0.0193,-0.0194,-0.0194,-0.0195,-0.0228,-0.0228,-0.0228,0,0,0,0,0,0,0,0,0,0,0,0,0,-0.0043,-0.0044,-0.0102,-0.0103,-0.0104,-0.0152,-0.0153,-0.0153,-0.0193,-0.0194,-0.0194,-0.0195,-0.0227,-0.0228,-0.0228,0,0,0,0,0,0,0,0,0,0,0,0,0,-0.0076,-0.0044,-0.0102,-0.0131,-0.0134,-0.0152,-0.0153,-0.0153,-0.0193,-0.0194,-0.0195,-0.0195,-0.0227,-0.0228,-0.0228,-0.0213,0,0,-0.023,-0.023,0,0,0,0,0,0,0,0,-0.0074,-0.0078,-0.0126,-0.0129,-0.0133,-0.0169,-0.0144,-0.0173,-0.0192,-0.0168,-0.0195,-0.0196,-0.0207,-0.0209,-0.0214,-0.0215,-0.0216,-0.023,-0.023,-0.023,-0.023,0,0,0,0,0,0,0,-0.0072,-0.0076,-0.012,-0.0127,-0.0131,-0.0143,-0.0148,-0.015,-0.018,-0.017,-0.0174,-0.0183,-0.0209,-0.0213,-0.0215,-0.0217,-0.023,-0.023,-0.023,-0.0231,-0.0244,-0.0244,0,0,0,0,0,0,-0.0069,-0.0074,-0.0118,-0.0122,-0.0108,-0.0143,-0.0149,-0.0155,-0.0181,-0.0186,-0.0182,-0.0184,-0.0212,-0.0214,-0.0216,-0.0217,-0.023,-0.0231,-0.0231,-0.0244,-0.0244,-0.0244,0,0,0,0,0,0,-0.0068,-0.0072,-0.0116,-0.0101,-0.0108,-0.0143,-0.0149,-0.0155,-0.0166,-0.019,-0.0195,-0.0188,-0.0213,-0.0216,-0.0225,-0.0218,-0.0231,-0.0231,-0.0244,-0.0244,-0.0244,-0.0208,0,0,0,0,0,0,-0.0066,-0.0071,-0.0072,-0.0101,-0.0109,-0.0123,-0.0149,-0.0156,-0.0171,-0.0175,-0.0196,-0.02,-0.0214,-0.0224,-0.0225,-0.0219,-0.0232,-0.0244,-0.0244,-0.0244,-0.0209,-0.0207,-0.0205,0,0,0,0,0,-0.0063,-0.0058,-0.0072,-0.0077,-0.0109,-0.0123,-0.0127,-0.0154,-0.017,-0.0168,-0.019,-0.02,-0.0226,-0.0224,-0.0226,-0.0219,-0.0243,-0.0244,-0.0244,-0.021,-0.0207,-0.0205,0,0,0,0,0,0,-0.0033,-0.0063,-0.0078,-0.0083,-0.0101,-0.0131,-0.0132,-0.0152,-0.0167,-0.0174,-0.0196,-0.0201,-0.0208,-0.0219,-0.0216,-0.0226,-0.0238,-0.0238,-0.0211,-0.0209,-0.0207,-0.0194,-0.0232,0,0,0,0,0,-0.0026,-0.0031,-0.0061,-0.0065,-0.0072,-0.0102,-0.0111,-0.0131,-0.0151,-0.0159,-0.0178,-0.0197,-0.0208,-0.0213,-0.0225,-0.0223,-0.0234,-0.0223,-0.0221,-0.0219,-0.0211,-0.0228,-0.0227,-0.0244,-0.0244,-0.0244,0,0,-0.0018,-0.0034,-0.0038,-0.0059,-0.0075,-0.0079,-0.0109,-0.0122,-0.0126,-0.0158,-0.0167,-0.0188,-0.0207,-0.0212,-0.0216,-0.022,-0.0219,-0.0219,-0.0217,-0.021,-0.0228,-0.0226,-0.0225,-0.0244,-0.0244,-0.0244,0,0,0.0003,-0.0014,-0.001,-0.0022,-0.0046,-0.0063,-0.0066,-0.0096,-0.0108,-0.012,-0.0147,-0.0165,-0.0181,-0.0194,-0.0202,-0.0194,-0.021,-0.0201,-0.0175,-0.0192,-0.0191,-0.0189,-0.0196,-0.0196,-0.0197,-0.0197,-0.0197,0,0.0013,0.0014,-0.001,-0.0009,-0.0015,-0.0053,-0.0048,-0.0063,-0.0093,-0.0096,-0.0119,-0.0152,-0.0172,-0.0172,-0.0177,-0.0187,-0.0198,-0.0181,-0.0188,-0.0187,-0.0187,-0.0194,-0.0194,-0.0196,-0.0196,-0.0196,-0.0196,0,0.0038,0.0036,0.004,0.0028,0.0021,0.0019,-0.0007,-0.0014,-0.0039,-0.0058,-0.0072,-0.0107,-0.0124,-0.0138,-0.0155,-0.0158,-0.0167,-0.0185,-0.0191,-0.0182,-0.0191,-0.0192,-0.0193,-0.0194,-0.0194,-0.0195,0,0,0.0062,0.0058,0.0058,0.0064,0.004,0.004,0.0037,0.0029,0.0037,-0.0005,0.0001,-0.0039,-0.0065,-0.0076,-0.0104,-0.0123,-0.0133,-0.015,-0.0151,-0.015,-0.0163,-0.0177,-0.0179,-0.0153,-0.0153,-0.0153,-0.0169,0,0.0087,0.0108,0.0094,0.0111,0.0119,0.0093,0.0099,0.0085,0.0068,0.0066,0.0021,0.0011,-0.0038,-0.0046,-0.0074,-0.0114,-0.0134,-0.0126,-0.0178,-0.0179,-0.0187,-0.0181,-0.017,-0.0184,-0.017,-0.017,-0.017,0,0.0112,0.0125,0.0148,0.0161,0.0163,0.0166,0.0176,0.0177,0.0162,0.0149,0.0122,0.0087,0.0055,0.0007,-0.0058,-0.0051,-0.0103,-0.0142,-0.0144,-0.0168,-0.0194,-0.0193,-0.0186,-0.0172,-0.0172,-0.0172,-0.0172,0,0.0143,0.0161,0.0185,0.0187,0.0194,0.0203,0.0207,0.0201,0.0221,0.0202,0.0211,0.0156,0.0142,0.0063,-0.0024,-0.0041,-0.0095,-0.0127,-0.0188,-0.0189,-0.0195,-0.0197,-0.0175,-0.0175,-0.0175,-0.0175,-0.0175,0,0.0171,0.019,0.0204,0.0216,0.0256,0.0243,0.028,0.0279,0.0289,0.0331,0.0257,0.0275,0.0155,0.0106,0.0008,-0.0084,-0.0072,-0.0177,-0.0194,-0.0182,-0.0183,-0.0187,-0.0188,-0.0176,-0.0176,-0.0176,-0.0175,0,0.019,0.0199,0.0232,0.0255,0.0269,0.0295,0.0334,0.037,0.0366,0.0418,0.0417,0.0373,0.0306,0.0184,0.0071,-0.0025,-0.0124,-0.0162,-0.0136,-0.015,-0.0215,-0.0214,-0.0231,-0.0231,-0.0232,-0.0232,-0.0233,0,0.0201,0.0218,0.0263,0.0296,0.0307,0.0347,0.0386,0.0403,0.0453,0.0489,0.0529,0.0475,0.0443,0.0262,0.0082,-0.0089,-0.0111,-0.0182,-0.022,-0.0206,-0.0221,-0.0219,-0.0218,-0.0211,-0.0212,-0.0212,-0.0212,0,0.0224,0.0236,0.0268,0.0336,0.0384,0.0448,0.0508,0.0563,0.0606,0.0639,0.0686,0.0657,0.0483,0.0307,0.0069,-0.0048,-0.0159,-0.019,-0.0175,-0.0202,-0.019,-0.0204,-0.0202,-0.0213,-0.0213,-0.0213,-0.0213,-0.0213,0.0242,0.0272,0.0319,0.0386,0.045,0.0547,0.0614,0.0683,0.0763,0.0826,0.0797,0.0747,0.0548,0.0228,0.0037,-0.0164,-0.0171,-0.0243,-0.0241,-0.024,-0.0237,-0.0228,-0.0257,-0.0257,-0.0257,-0.0257,-0.0257,0,0.0274,0.0313,0.0372,0.0461,0.0546,0.0574,0.07,0.0764,0.0864,0.089,0.0893,0.0691,0.0486,0.027,-0.0035,-0.0222,-0.0239,-0.0268,-0.0248,-0.0246,-0.0244,-0.0241,-0.0262,-0.0262,-0.0262,-0.0263,0,0,0.0296,0.0358,0.0393,0.0533,0.0602,0.0729,0.0812,0.0884,0.0926,0.0932,0.0892,0.0805,0.0542,0.0327,0.0074,-0.0086,-0.0121,-0.012,-0.01,-0.0045,-0.0041,-0.0219,-0.0211,0,0,0,0,0]}],[{"header":{"parameterUnit":"m.s-1","parameterCategory":2,"la1":30.2991,"la2":30.254,"lo1":-89.0895,"lo2":-89.0444,"dy":0.0017,"dx":0.0017,"nx":28,"ny":28,"refTime":"2025-09-08T03:00:00:Z","depth":"4","parameterNumber":2,"parameterNumberName":"U-component_of_CURRENTS"},"data":[0,0,0,0,0,0,0,0,0,0,0,0,0,0,0,0,0,0,0,0,0,0,0,0,0,0,0,0,0,0,0,0,0,0,0,0,0,0,0,0,0,0,0,0,0,0,0,0,0,0,0,0,0,0,0,0,0,0,0.0729,0.0729,0,0.0786,0.0788,0.0789,0.0843,0.0843,0.0843,0.0843,0.0917,0.0919,0.0921,0,0,0,0,0,0,0,0,0,0,0,0,0,0.0719,0.072,0.0729,0.0729,0.073,0.0786,0.0788,0.0789,0.0843,0.0843,0.0843,0.0843,0.0917,0.0919,0.0921,0,0,0,0,0,0,0,0,0,0,0,0,0,0.0751,0.072,0.0729,0.0758,0.0761,0.0786,0.0788,0.079,0.0843,0.0843,0.0843,0.0843,0.0916,0.0919,0.0921,0.0937,0,0,0.093,0.0932,0,0,0,0,0,0,0,0,0.0749,0.0752,0.0754,0.0756,0.0759,0.0802,0.0811,0.0838,0.0843,0.0819,0.0843,0.0843,0.0876,0.0882,0.0902,0.0941,0.0944,0.0931,0.0932,0.0934,0.0934,0,0,0,0,0,0,0,0.0747,0.075,0.0759,0.0754,0.0757,0.0786,0.0791,0.0817,0.0852,0.0821,0.0823,0.0819,0.0878,0.0899,0.0904,0.0945,0.093,0.0933,0.0935,0.0936,0.1031,0.1032,0,0,0,0,0,0,0.0723,0.0748,0.0757,0.076,0.0747,0.0785,0.0791,0.0793,0.0851,0.0858,0.0819,0.0821,0.0894,0.09,0.0907,0.0974,0.0934,0.0936,0.0938,0.1031,0.1032,0.1032,0,0,0,0,0,0,0.0723,0.0724,0.0754,0.075,0.0755,0.0784,0.0787,0.0794,0.0838,0.0848,0.0857,0.0856,0.0894,0.0903,0.0938,0.0975,0.0938,0.094,0.103,0.1031,0.1032,0.1079,0,0,0,0,0,0,0.0723,0.0724,0.0735,0.0748,0.0754,0.0779,0.0787,0.0795,0.083,0.0835,0.0883,0.0888,0.0895,0.0934,0.0941,0.0979,0.0942,0.1029,0.103,0.1032,0.1077,0.1082,0.1087,0,0,0,0,0,0.0723,0.0727,0.0735,0.0737,0.0762,0.0779,0.0786,0.0812,0.0832,0.0854,0.0879,0.0888,0.0949,0.0937,0.0945,0.0984,0.1028,0.103,0.1032,0.1075,0.1081,0.1086,0,0,0,0,0,0,0.0731,0.0733,0.0742,0.0749,0.0767,0.0786,0.0804,0.0828,0.0869,0.0878,0.0899,0.0906,0.0951,0.0957,0.0943,0.1014,0.099,0.0994,0.102,0.1026,0.1031,0.1019,0.0945,0,0,0,0,0,0.0734,0.074,0.0749,0.0758,0.0766,0.0795,0.0811,0.0829,0.0854,0.0875,0.0908,0.0937,0.0963,0.0985,0.1004,0.1047,0.1045,0.1076,0.1081,0.1085,0.108,0.1103,0.1109,0.1038,0.1038,0.1038,0,0,0.0737,0.074,0.0745,0.0761,0.0779,0.0794,0.0808,0.0834,0.0866,0.0875,0.0938,0.0957,0.0975,0.1018,0.104,0.1031,0.1106,0.1088,0.1091,0.1083,0.1105,0.1112,0.1118,0.104,0.1039,0.1039,0,0,0.0739,0.0753,0.0759,0.0773,0.0793,0.081,0.0822,0.0857,0.0896,0.0939,0.0958,0.099,0.1039,0.1059,0.1074,0.1116,0.1127,0.1138,0.1162,0.1186,0.1192,0.1197,0.1211,0.1217,0.1145,0.1145,0.1145,0,0.0749,0.0752,0.0765,0.0775,0.0789,0.0818,0.0835,0.0876,0.0925,0.0956,0.0959,0.1034,0.1052,0.1104,0.112,0.1129,0.1143,0.1142,0.1193,0.1198,0.1202,0.1215,0.1221,0.1148,0.1147,0.1147,0.1147,0,0.0744,0.0761,0.0766,0.0787,0.0808,0.0827,0.0866,0.0907,0.0949,0.0986,0.1053,0.1077,0.1117,0.1138,0.1144,0.12,0.12,0.1193,0.1178,0.1212,0.1223,0.1229,0.1151,0.115,0.115,0.1149,0,0,0.0736,0.0759,0.0766,0.078,0.0818,0.0832,0.0884,0.0937,0.0985,0.1034,0.1092,0.114,0.1165,0.1181,0.1208,0.1231,0.1279,0.1235,0.1235,0.1249,0.1336,0.1249,0.1246,0.1294,0.1295,0.1296,0.1334,0,0.0736,0.075,0.0769,0.0799,0.0811,0.0851,0.0899,0.0953,0.1013,0.1078,0.1119,0.1184,0.1184,0.1219,0.1241,0.1273,0.1295,0.1269,0.1299,0.13,0.1219,0.1249,0.1299,0.1338,0.1339,0.134,0.1341,0,0.0725,0.0738,0.0764,0.0806,0.0818,0.0848,0.0923,0.0976,0.1066,0.1117,0.1177,0.1217,0.1275,0.1264,0.1322,0.1313,0.1327,0.1338,0.134,0.1241,0.1221,0.1295,0.135,0.1349,0.1349,0.1348,0.1348,0,0.0698,0.0736,0.0759,0.0772,0.0824,0.0857,0.0902,0.099,0.1047,0.1161,0.1203,0.1272,0.1316,0.1341,0.1364,0.1359,0.1411,0.1401,0.1331,0.1325,0.1372,0.1365,0.1429,0.1429,0.1429,0.1429,0.1429,0,0.0674,0.0696,0.0753,0.076,0.0807,0.0855,0.0927,0.099,0.1081,0.1148,0.1234,0.1281,0.134,0.1373,0.1383,0.1369,0.1426,0.1333,0.1328,0.1391,0.1387,0.1376,0.1369,0.1431,0.143,0.143,0.143,0,0.0618,0.0668,0.0702,0.0766,0.0793,0.0835,0.0927,0.0973,0.108,0.1167,0.1205,0.1299,0.1351,0.1386,0.1429,0.1385,0.1387,0.1368,0.1435,0.1434,0.1282,0.1277,0.129,0.1287,0.1285,0.1283,0.1281,0,0.0583,0.0585,0.068,0.0728,0.0764,0.0832,0.0872,0.0971,0.1025,0.1166,0.1193,0.1279,0.1333,0.1324,0.1362,0.1368,0.1351,0.1339,0.13,0.1273,0.1268,0.1267,0.1266,0.1277,0.1277,0.1276,0.1275,0,0.0484,0.0535,0.0565,0.0671,0.074,0.0792,0.0864,0.0887,0.1008,0.1099,0.1168,0.1201,0.1251,0.1273,0.1287,0.1287,0.1338,0.1314,0.1318,0.1282,0.1258,0.1255,0.1256,0.1267,0.1268,0.1269,0.127,0,0.0408,0.0418,0.0487,0.0589,0.0696,0.0748,0.0786,0.0843,0.0901,0.1052,0.1066,0.1167,0.1244,0.1231,0.1243,0.1236,0.1215,0.1169,0.118,0.119,0.1136,0.1089,0.1042,0,0,0,0,0,0.0313,0.0316,0.0388,0.0513,0.0644,0.0697,0.0777,0.0816,0.0919,0.0945,0.1008,0.1058,0.1093,0.1132,0.1103,0.1179,0.1205,0.1138,0.1155,0.1222,0.1231,0.1175,0,0,0,0,0,0,0.0243,0.0276,0.0331,0.0455,0.0535,0.0635,0.0687,0.0751,0.0772,0.0882,0.0906,0.099,0.1032,0.1103,0.1084,0.1094,0.108,0.1193,0.119,0.1216,0.1225,0.1233,0.1178,0,0,0,0,0]},{"header":{"parameterUnit":"m.s-1","parameterCategory":2,"la1":30.2991,"la2":30.254,"lo1":-89.0895,"lo2":-89.0444,"dy":0.0017,"dx":0.0017,"nx":28,"ny":28,"refTime":"2025-09-08T03:00:00:Z","depth":"4","parameterNumber":3,"parameterNumberName":"V-component_of_CURRENTS"},"data":[0,0,0,0,0,0,0,0,0,0,0,0,0,0,0,0,0,0,0,0,0,0,0,0,0,0,0,0,0,0,0,0,0,0,0,0,0,0,0,0,0,0,0,0,0,0,0,0,0,0,0,0,0,0,0,0,0,0,0.0175,0.0175,0,0.0138,0.0138,0.0137,0.0107,0.0107,0.0107,0.0106,0.0066,0.0065,0.0064,0,0,0,0,0,0,0,0,0,0,0,0,0,0.0177,0.0177,0.0175,0.0175,0.0174,0.0138,0.0138,0.0137,0.0107,0.0107,0.0107,0.0106,0.0066,0.0065,0.0064,0,0,0,0,0,0,0,0,0,0,0,0,0,0.016,0.0177,0.0175,0.0156,0.0154,0.0138,0.0138,0.0137,0.0107,0.0107,0.0107,0.0106,0.0067,0.0065,0.0064,0.006,0,0,0.006,0.0059,0,0,0,0,0,0,0,0,0.0161,0.016,0.0159,0.0158,0.0155,0.0129,0.0124,0.0111,0.0107,0.0123,0.0106,0.0106,0.0088,0.0085,0.0076,0.0058,0.0056,0.006,0.0059,0.0058,0.0058,0,0,0,0,0,0,0,0.0162,0.0161,0.0158,0.0159,0.0157,0.0136,0.0133,0.0121,0.0106,0.0122,0.012,0.0119,0.0087,0.0077,0.0075,0.0055,0.006,0.0058,0.0057,0.0057,0.0033,0.0033,0,0,0,0,0,0,0.0173,0.0162,0.016,0.0157,0.016,0.0136,0.0133,0.0136,0.0106,0.0102,0.0119,0.0118,0.008,0.0076,0.0073,0.0068,0.0058,0.0057,0.0056,0.0033,0.0033,0.0034,0,0,0,0,0,0,0.0173,0.0173,0.0161,0.016,0.0157,0.0137,0.014,0.0135,0.0124,0.0104,0.0099,0.0113,0.0079,0.0075,0.0066,0.0066,0.0056,0.0055,0.0033,0.0033,0.0033,0.0056,0,0,0,0,0,0,0.0174,0.0174,0.0176,0.0161,0.0158,0.0154,0.014,0.0135,0.0125,0.0123,0.0097,0.0093,0.0079,0.0068,0.0064,0.0064,0.0054,0.0032,0.0033,0.0033,0.0055,0.0057,0.0059,0,0,0,0,0,0.0174,0.018,0.0177,0.0176,0.0163,0.0154,0.015,0.0133,0.0125,0.0122,0.0108,0.0094,0.0068,0.0067,0.0063,0.0062,0.0032,0.0033,0.0033,0.0054,0.0057,0.0059,0,0,0,0,0,0,0.0174,0.0177,0.0173,0.0177,0.0168,0.015,0.0147,0.0135,0.012,0.0119,0.0097,0.0092,0.0084,0.0072,0.0071,0.0057,0.0048,0.0047,0.0065,0.0067,0.0069,0.0073,0.0053,0,0,0,0,0,0.0178,0.0189,0.018,0.0183,0.0181,0.0164,0.0157,0.0148,0.0135,0.0127,0.011,0.0094,0.0083,0.0074,0.0063,0.0055,0.0033,0.0051,0.0053,0.0055,0.0055,0.0024,0.0023,0.0035,0.0035,0.0035,0,0,0.0178,0.0183,0.0187,0.0185,0.0177,0.0178,0.0159,0.0154,0.0152,0.0127,0.0117,0.0101,0.0083,0.0075,0.0069,0.0064,0.004,0.0056,0.0057,0.0056,0.0024,0.0023,0.0022,0.0035,0.0035,0.0035,0,0,0.0188,0.0189,0.0201,0.0199,0.0196,0.0188,0.0189,0.0172,0.0162,0.0154,0.0135,0.012,0.0101,0.0086,0.0077,0.0082,0.0053,0.0079,0.0088,0.0058,0.0056,0.0055,0.0025,0.0021,0.0078,0.0078,0.0078,0,0.0186,0.0203,0.02,0.021,0.0212,0.0195,0.0203,0.0191,0.0172,0.0164,0.0157,0.0122,0.0107,0.0091,0.0093,0.0086,0.0064,0.0081,0.006,0.0058,0.0056,0.0026,0.0021,0.0079,0.0079,0.0079,0.0079,0,0.0204,0.0217,0.0223,0.0236,0.0235,0.024,0.0229,0.0221,0.0209,0.0193,0.0173,0.0148,0.0126,0.0119,0.0108,0.0087,0.0074,0.0067,0.0053,0.0056,0.0024,0.0018,0.0081,0.008,0.008,0.0079,0,0,0.02,0.0231,0.0233,0.0247,0.0252,0.0253,0.0253,0.0244,0.0239,0.0214,0.02,0.0176,0.0154,0.0142,0.0121,0.0094,0.0061,0.0076,0.0074,0.0046,-0.0009,-0.0014,-0.0021,0.0048,0.0047,0.0046,-0.0026,0,0.0213,0.0246,0.0255,0.0279,0.0293,0.0285,0.0285,0.0274,0.0258,0.0238,0.0203,0.0185,0.0165,0.0153,0.0123,0.0078,0.0047,0.0082,-0.0006,-0.0009,-0.0015,-0.0027,0.0044,-0.003,-0.0032,-0.0033,-0.0034,0,0.0225,0.025,0.0281,0.0308,0.0311,0.032,0.0319,0.0319,0.0288,0.0272,0.0242,0.0211,0.0169,0.0154,0.0071,0.0092,0.0045,0.0008,0.0004,-0.0013,-0.0025,-0.0034,-0.0044,-0.0044,-0.0043,-0.0042,-0.0041,0,0.023,0.0266,0.0296,0.0305,0.0328,0.0335,0.0343,0.0327,0.0326,0.0293,0.0281,0.0224,0.0194,0.0129,0.0053,0.0059,-0.0043,-0.0045,-0.0096,-0.0097,-0.0081,-0.0079,-0.0106,-0.0106,-0.0105,-0.0105,-0.0105,0,0.0245,0.0267,0.0303,0.0319,0.0344,0.0354,0.0368,0.0361,0.0351,0.0346,0.0301,0.0275,0.0186,0.0118,0.0051,-0.0043,-0.0048,-0.0099,-0.0118,-0.0069,-0.0065,-0.0086,-0.0082,-0.0108,-0.0107,-0.0107,-0.0106,0,0.0252,0.0273,0.0307,0.034,0.035,0.0369,0.0394,0.0399,0.0389,0.0381,0.0372,0.0304,0.0212,0.012,0.0006,-0.0045,-0.0132,-0.0163,-0.0108,-0.0122,-0.0165,-0.016,-0.0227,-0.0228,-0.0229,-0.023,-0.023,0,0.0258,0.0281,0.0324,0.0337,0.0355,0.0385,0.0401,0.0413,0.0419,0.0396,0.0387,0.0304,0.0247,0.0082,-0.0016,-0.0151,-0.0165,-0.0207,-0.0183,-0.0168,-0.0179,-0.0172,-0.0166,-0.0231,-0.0231,-0.0231,-0.0232,0,0.027,0.0287,0.0317,0.0344,0.0367,0.0399,0.0425,0.0433,0.0441,0.0438,0.0393,0.031,0.0202,0.0077,-0.0032,-0.0125,-0.0177,-0.0215,-0.0214,-0.0191,-0.0173,-0.0182,-0.0175,-0.0234,-0.0234,-0.0233,-0.0233,0,0.0271,0.0289,0.0319,0.034,0.0371,0.0394,0.0416,0.0425,0.0435,0.0421,0.0402,0.0298,0.0239,0.0089,-0.0011,-0.0106,-0.0125,-0.0142,-0.0145,-0.0143,-0.0094,-0.0057,-0.0104,0,0,0,0,0,0.0269,0.028,0.0304,0.0325,0.036,0.0377,0.0418,0.0437,0.0453,0.0428,0.042,0.0325,0.0175,0.0104,0.0007,-0.0034,-0.0151,-0.015,-0.0173,-0.0247,-0.0244,-0.0201,0,0,0,0,0,0,0.0257,0.0285,0.0296,0.0309,0.0322,0.0359,0.0389,0.0407,0.0395,0.04,0.0319,0.03,0.0147,0.0224,0.0001,-0.0029,-0.0054,-0.0217,-0.0219,-0.0249,-0.0246,-0.0244,-0.0199,0,0,0,0,0]}]]